Mullan Pass, ID

10:33 PM PDT on May 26, 2018 (GMT -0700)
Mullan Pass

Weather History for KMLP - April, 2014

Change the Weather History Date:

Thursday, April 24, 2014

  Actual Average (K3TH) Record (K3TH)
Temperature  
Mean Temperature 30 °F -  
Max Temperature 34 °F 59 °F 69 °F (2001)
Min Temperature 28 °F 37 °F 27 °F (2002)
Degree Days  
Heating Degree Days 34    
Moisture  
Dew Point 30 °F    
Average Humidity 97    
Maximum Humidity 100    
Minimum Humidity 92    
Precipitation  
Precipitation 0.45 in - - ()
Sea Level Pressure  
Sea Level Pressure 29.78 in    
Wind  
Wind Speed 5 mph (SSW)    
Max Wind Speed 9 mph    
Max Gust Speed 21 mph    
Visibility 1 miles    
Events Fog , Snow    
Averages and records for this station are not official NWS values.
T = Trace of Precipitation, MM = Missing Value Source: NWS Daily Summary

Daily Weather History Graph

Daily Weather History Graph

Search for Another Location

Airport or City:

Astronomy

Apr. 24, 2014 Rise Set
Actual Time 5:37 AM PDT 7:44 PM PDT
Civil Twilight 5:04 AM PDT 8:18 PM PDT
Nautical Twilight 4:23 AM PDT 8:59 PM PDT
Astronomical Twilight 3:37 AM PDT 9:46 PM PDT
Moon 3:12 AM PDT (4/24) 2:46 PM PDT (4/24)
Length of Visible Light 15h 13m
Length of Day
14h 07m
Waning Crescent, 23% of the Moon is Illuminated
Apr 24
Waning Crescent
Apr 28
New
May 6
First Quarter
May 14
Full
May 21
Last Quarter

Hourly Weather History & Observations

Time (PDT) Temp. Windchill Dew Point Humidity Pressure Visibility Wind Dir Wind Speed Gust Speed Precip Events Conditions
12:34 AM 28.4 °F 23.3 °F 26.6 °F 93% 29.80 in 1.0 mi Variable 4.6 mph - 0.01 in Snow Light Snow
12:45 AM 28.4 °F 23.3 °F 26.6 °F 93% 29.80 in 0.8 mi South 4.6 mph - 0.01 in Snow Light Snow
12:53 AM 28.0 °F 22.8 °F 27.0 °F 96% 29.89 in 0.8 mi Variable 4.6 mph - 0.01 in Snow Light Snow
1:53 AM 28.0 °F 24.2 °F 27.0 °F 96% 29.87 in 0.5 mi SSE 3.5 mph - 0.01 in Fog , Snow Light Snow
2:53 AM 28.0 °F 24.2 °F 27.0 °F 96% 29.85 in 0.5 mi Variable 3.5 mph - 0.03 in Fog , Snow Light Snow
3:53 AM 28.0 °F 21.7 °F 28.0 °F 100% 29.83 in 0.5 mi Variable 5.8 mph - 0.01 in Fog , Snow Light Snow
4:53 AM 28.0 °F 22.8 °F 28.0 °F 100% 29.82 in 0.5 mi Variable 4.6 mph - 0.02 in Fog , Snow Light Snow
5:53 AM 28.9 °F 23.9 °F 28.0 °F 96% 29.80 in 0.5 mi Variable 4.6 mph - 0.04 in Fog , Snow Snow
6:02 AM 28.4 °F 22.2 °F 28.4 °F 100% 29.73 in 0.2 mi Variable 5.8 mph - 0.01 in Fog , Snow Snow
6:53 AM 28.9 °F 25.2 °F 28.9 °F 100% 29.80 in 0.2 mi Variable 3.5 mph - 0.05 in Fog , Snow Snow
7:53 AM 30.0 °F 25.2 °F 28.9 °F 96% 29.81 in 0.2 mi Variable 4.6 mph - 0.06 in Fog , Snow Snow
8:53 AM 30.9 °F 27.5 °F 28.9 °F 92% 29.81 in 0.2 mi Variable 3.5 mph - 0.05 in Fog , Snow Snow
9:53 AM 30.9 °F 26.2 °F 28.9 °F 92% 29.82 in 0.2 mi Variable 4.6 mph - 0.04 in Fog , Snow Light Snow
10:39 AM 30.2 °F 23.4 °F 30.2 °F 100% 29.77 in 0.5 mi Variable 6.9 mph - 0.03 in Fog , Snow Light Snow
10:46 AM 30.2 °F 24.3 °F 30.2 °F 100% 29.77 in 0.2 mi Variable 5.8 mph - 0.03 in Fog , Snow Light Snow
10:53 AM 30.9 °F 24.3 °F 30.0 °F 96% 29.70 in 0.2 mi Variable 6.9 mph - 0.03 in Fog , Snow Light Snow
11:53 AM 32.0 °F 25.6 °F 30.0 °F 92% 29.71 in 0.2 mi Variable 6.9 mph - 0.01 in Fog , Snow Snow
12:44 PM 32.0 °F 25.6 °F 30.2 °F 93% 29.78 in 0.5 mi Variable 6.9 mph - 0.02 in Fog , Snow Light Snow
12:53 PM 32.0 °F 24.8 °F 30.0 °F 92% 29.71 in 1.8 mi WSW 8.1 mph 17.3 mph 0.02 in   Overcast
12:56 PM 32.0 °F 25.6 °F 30.2 °F 93% 29.78 in 3.0 mi Variable 6.9 mph 17.3 mph N/A   Overcast
1:00 PM 32.0 °F 25.6 °F 30.2 °F 93% 29.78 in 1.8 mi Variable 6.9 mph - 0.00 in Snow Light Snow
1:03 PM 32.0 °F 27.5 °F 30.2 °F 93% 29.78 in 0.8 mi Variable 4.6 mph - 0.00 in Snow Light Snow
1:13 PM 32.0 °F 26.4 °F 30.2 °F 93% 29.77 in 0.2 mi Variable 5.8 mph - 0.00 in Fog , Snow Light Snow
1:53 PM 32.0 °F 25.6 °F 32.0 °F 100% 29.71 in 0.2 mi Variable 6.9 mph - 0.00 in Fog Fog
2:14 PM 33.8 °F 28.6 °F 33.8 °F 100% 29.78 in 0.5 mi Variable 5.8 mph - 0.00 in Fog Fog
2:35 PM 32.0 °F 26.4 °F 32.0 °F 100% 29.78 in 0.2 mi Variable 5.8 mph - 0.00 in Fog , Snow Snow
2:53 PM 32.0 °F 26.4 °F 32.0 °F 100% 29.72 in 0.2 mi South 5.8 mph - 0.02 in Fog , Snow Snow
3:08 PM 32.0 °F 24.8 °F 32.0 °F 100% 29.80 in 1.0 mi SSW 8.1 mph - 0.01 in Snow Light Snow
3:11 PM 32.0 °F 24.8 °F 32.0 °F 100% 29.80 in 2.0 mi SW 8.1 mph - 0.01 in Snow Light Snow
3:16 PM 32.0 °F 24.8 °F 32.0 °F 100% 29.79 in 1.2 mi SW 8.1 mph - 0.01 in   Overcast
3:34 PM 32.0 °F 24.8 °F 32.0 °F 100% 29.80 in 0.2 mi SW 8.1 mph - 0.01 in Fog Fog
3:46 PM 32.0 °F 26.4 °F 32.0 °F 100% 29.80 in 1.0 mi Variable 5.8 mph 16.1 mph 0.01 in   Overcast
3:48 PM 32.0 °F 24.2 °F 32.0 °F 100% 29.80 in 2.0 mi SW 9.2 mph 16.1 mph 0.01 in   Overcast
3:53 PM 33.1 °F 26.1 °F 32.0 °F 96% 29.72 in 10.0 mi WSW 8.1 mph - 0.01 in   Overcast
4:03 PM 33.8 °F 27.7 °F 33.8 °F 100% 29.79 in 10.0 mi SW 6.9 mph - N/A   Overcast
4:18 PM 33.8 °F 27.0 °F 32.0 °F 93% 29.80 in 2.0 mi SSW 8.1 mph - N/A   Overcast
4:20 PM 33.8 °F 28.6 °F 32.0 °F 93% 29.80 in 0.8 mi Variable 5.8 mph - 0.00 in Snow Light Snow
4:23 PM 33.8 °F 27.7 °F 32.0 °F 93% 29.80 in 0.2 mi SSW 6.9 mph - 0.00 in Fog , Snow Light Snow
4:41 PM 32.0 °F 25.6 °F 32.0 °F 100% 29.80 in 0.5 mi Variable 6.9 mph - 0.00 in Fog Fog
4:53 PM 33.1 °F 28.7 °F 32.0 °F 96% 29.72 in 0.5 mi Variable 4.6 mph - 0.00 in Fog Fog
5:01 PM 33.8 °F 27.0 °F 33.8 °F 100% 29.80 in 0.2 mi South 8.1 mph - N/A Fog Fog
5:53 PM 32.0 °F 24.2 °F 32.0 °F 100% 29.73 in 0.2 mi SSW 9.2 mph - 0.01 in Fog Fog
6:53 PM 32.0 °F - 32.0 °F 100% 29.73 in 0.2 mi Calm Calm - 0.01 in Fog , Snow Light Snow
7:12 PM 32.0 °F 27.5 °F 30.2 °F 93% 29.80 in 0.2 mi Variable 4.6 mph - 0.01 in Fog , Snow Snow
7:34 PM 32.0 °F 25.6 °F 30.2 °F 93% 29.80 in 0.2 mi SSW 6.9 mph - 0.02 in Fog Fog
7:53 PM 32.0 °F 25.6 °F 30.9 °F 96% 29.73 in 1.8 mi Variable 6.9 mph 20.7 mph 0.02 in   Overcast
7:58 PM 32.0 °F 28.7 °F 32.0 °F 100% 29.80 in 0.8 mi Variable 3.5 mph - N/A   Overcast
8:08 PM 32.0 °F 26.4 °F 30.2 °F 93% 29.81 in 0.2 mi Variable 5.8 mph - N/A Fog Fog
8:53 PM 30.9 °F 25.2 °F 30.9 °F 100% 29.74 in 0.2 mi Variable 5.8 mph - N/A Fog Light Freezing Fog
9:53 PM 30.9 °F 26.2 °F 30.0 °F 96% 29.74 in 0.2 mi Variable 4.6 mph - 0.00 in Fog , Snow Light Snow
10:35 PM 30.2 °F - 30.2 °F 100% 29.81 in 0.2 mi Calm Calm - 0.00 in Fog Light Freezing Fog
10:53 PM 30.9 °F - 30.9 °F 100% 29.73 in 0.2 mi Calm Calm - 0.00 in Fog Light Freezing Fog
11:53 PM 30.9 °F 27.5 °F 30.0 °F 96% 29.73 in 0.2 mi Variable 3.5 mph - N/A Fog Light Freezing Fog